www.pogodaiklimat.ru

Погода и климат >> Архив погоды >> Хорватия >> Вараздин


ПОГОДА в Вараздине

  • Прогноз погоды в Вараздине
  • Монитор погоды в Вараздине

АРХИВ ПОГОДЫ в Вараздине

Время (UTC), дата Ветер
(напр.,м/с)
 
Видим.   Явления Облачность Т
(С)
Тd
(С)
f
(%)
Тe
(С)
Тes
(С)
Комфортность P
(гПа)
Po
(гПа)
Тmin
(С)
Tmax
(С)
R
(мм)
R24
(мм)
S
(см)
13 10.08 ЮВ 3 20 км 3/3 600 м
[Cu hum]
+31.2 +22.4 60 +41 +48 опасность
перегрева
1012.5 993.8
14 10.08 Ю 3 н/о н/о +31.6 +20.0 50 +38 +38 очень
душно
1012.7 993.8
15 10.08 ЮВ 3 н/о н/о +31.7 +19.4 48 +37 +37 очень
душно
1012.7 993.8
16 10.08 Ю 3 н/о н/о +31.5 +20.5 52 +38 +38 очень
душно
1012.5 993.6
17 10.08 ЮЗ 1 н/о н/о +31.2 +21.7 57 +40 +40 очень
душно
1012.5 993.6
18 10.08 ЮВ 2 20 км 3/0
[Cs]
+28.8 +21.7 66 +37 +37 очень
душно
1012.5 993.7 +32.2
19 10.08 ЮВ 2 20 км 3/0
[Ci sp]
+25.9 +21.8 78 +33 +33 очень
душно
1013.3 994.3
20 10.08 В 1 20 км 4/4 600 м
[Cu hum]
+24.9 +22.0 84 +32 +32 очень
душно
1013.9 994.8
21 10.08 С 1 н/о н/о +24.6 +22.0 85 +32 +32 очень
душно
1014.6 995.3
00 11.08 В 1 н/о н/о +22.4 +18.9 81 +28 +28 душно 1016.9 997.4
03 11.08 С 1 н/о н/о +21.2 +17.7 80 +25 +25 комфорт 1018.0 998.4
04 11.08 С 2 н/о н/о +21.3 +16.1 72 +25 +25 комфорт 1018.7 999.1
05 11.08 С 1 н/о н/о +21.2 +15.8 71 +24 +24 комфорт 1019.4 999.7
06 11.08 С 3 20 км 9/9 1000 м
[Sc]
+22.2 +15.8 67 +26 +26 душно 1019.5 1000.1 +20.7
07 11.08 СВ 5 20 км 9/9 1000 м
[Sc]
+22.8 +15.3 63 +27 +27 душно 1019.6 1000.2
08 11.08 СВ 5 20 км 10/10 1000 м
[Sc]
+23.2 +14.7 59 +27 +27 душно 1019.8 1000.4
09 11.08 СВ 4 20 км 9/9 1000 м
[Sc]
+23.5 +15.0 59 +26 +27 жарко 1019.8 1000.4
10 11.08 СВ 3 20 км 9/9 1000 м
[Sc]
+24.9 +16.1 58 +28 +29 жарко 1019.7 1000.4
11 11.08 СВ 3 20 км 10/10 1000 м
[Sc]
+25.5 +15.8 55 +29 +29 душно 1018.7 999.5
12 11.08 С 2 20 км 4/0
[Ac trans]
+26.6 +16.2 53 +30 +41 душно 1018.2 999.1
13 11.08 СВ 2 20 км 4/0
[Cs]
+27.2 +16.2 51 +31 +42 душно 1017.4 998.3
14 11.08 С 2 н/о н/о +28.0 +17.3 52 +32 +32 душно 1016.8 997.6
15 11.08 В 2 н/о н/о +27.9 +15.6 47 +31 +31 душно 1016.3 997.1
16 11.08 Ю 1 н/о н/о +28.1 +18.0 54 +33 +33 очень
душно
1015.6 996.5
17 11.08 ЮВ 1 н/о н/о +27.4 +17.0 53 +31 +31 душно 1015.4 996.2
18 11.08 Ю 1 20 км ясно +25.6 +19.0 67 +31 +31 очень
душно
1015.1 996.0 +29.4
19 11.08 Ю 1 20 км ясно +22.0 +18.5 81 +27 +27 душно 1015.4 996.0
20 11.08 Ю 1 20 км ясно +21.3 +18.3 83 +26 +26 душно 1015.3 995.9
21 11.08 ЮВ 1 н/о н/о +20.1 +17.9 87 +24 +24 комфорт 1015.2 995.6
00 12.08 штиль 0 н/о н/о +18.5 +17.2 92 +19 +19 1014.3 994.6
03 12.08 ЮВ 1 н/о н/о +18.0 +17.3 96 +19 +19 1013.7 993.9
04 12.08 С 2 н/о н/о +17.4 +16.5 94 +18 +18 1014.0 994.2
05 12.08 ЮЗ 2 н/о н/о +18.3 +17.6 96 +19 +19 1014.0 994.3
06 12.08 СЗ 1 20 км ясно +21.7 +19.0 85 +27 +30 душно 1013.4 994.1 +17.1
07 12.08 С 2 20 км ясно +24.0 +19.0 74 +29 +35 душно 1013.8 994.6
08 12.08 СВ 2 20 км ясно +26.1 +20.5 71 +32 +42 очень
душно
1013.7 994.7
09 12.08 В 2 20 км ясно +27.0 +20.2 66 +33 +46 очень
душно
1013.5 994.5
10 12.08 СВ 2 15 км ясно +28.1 +21.0 65 +35 +50 очень
душно
1013.4 994.5
11 12.08 СВ 2 15 км ясно +29.1 +21.5 64 +37 +53 опасность
солнечного
удара
1012.9 994.1
12 12.08 С 1 15 км ясно +30.6 +22.1 61 +40 +57 опасность
солнечного
удара
1012.5 993.8
13 12.08 ЮВ 1 15 км 3/0
[Cs]
+31.1 +21.5 57 +39 +53 опасность
солнечного
удара
1011.6 992.9
14 12.08 Ю 2 н/о н/о +32.4 +22.0 54 +41 +41 опасность
перегрева
1011.6 992.8
15 12.08 Ю 3 н/о н/о +32.0 +21.0 52 +39 +39 очень
душно
1011.0 992.2
16 12.08 ЮВ 2 н/о н/о +31.5 +22.6 59 +41 +41 опасность
перегрева
1010.4 991.6
17 12.08 ЮВ 2 н/о н/о +30.5 +23.0 64 +40 +40 очень
душно
1010.2 991.3
18 12.08 В 1 15 км 3/0
[Ac As]
+28.6 +23.3 73 +39 +39 очень
душно
1009.7 990.9 +32.7
19 12.08 штиль 0 15 км 4/0
[Ac As]
+25.7 +22.6 83 +34 +34 очень
душно
1010.4 991.4
20 12.08 В 2 15 км 5/0
[Ac As]
+24.3 +22.0 87 +31 +31 очень
душно
1010.8 991.7
21 12.08 штиль 0 н/о н/о +23.6 +21.8 90 +30 +30 очень
душно
1011.3 992.0
00 13.08 СЗ 2 н/о н/о +21.3 +18.7 85 +26 +26 душно 1012.4 992.9
03 13.08 СВ 4 н/о н/о +20.3 +16.4 78 +23 +23 комфорт 1013.3 993.7
04 13.08 С 3 н/о н/о +19.9 +15.8 77 +23 +23 комфорт 1014.6 995.0
05 13.08 СВ 3 н/о н/о +20.0 +15.5 75 +23 +23 комфорт 1014.5 994.9
06 13.08 С 3 15 км 8/8 1000 м
[Sc]
+20.1 +15.9 77 +23 +24 комфорт 1014.8 995.3 +19.6
07 13.08 СВ 4 15 км 8/5 1000 м
[Sc Ac trans]
+20.7 +15.2 71 +24 +25 комфорт 1015.3 995.8
08 13.08 СВ 5 20 км 9/9 1000 м
[Sc]
+22.2 +15.1 64 +26 +26 душно 1015.8 996.4
09 13.08 СВ 5 20 км 9/9 1000 м
[Sc]
+23.1 +15.3 61 +27 +28 душно 1015.6 996.3
10 13.08 СВ 5 20 км 9/9 1000 м
[Sc]
+23.6 +15.3 60 +27 +27 жарко 1015.6 996.3
11 13.08 СВ 5 20 км 9/9 600 м
[Cu Sc]
+24.5 +14.2 53 +27 +28 жарко 1015.5 996.3
12 13.08 С 6 20 км 9/9 600 м
[Cu Sc]
+24.2 +15.1 57 +27 +28 жарко 1015.6 996.4
13 13.08 С 5 20 км 10/10 600 м
[Sc]
+23.7 +14.4 56 +26 +26 жарко 1015.4 996.1
14 13.08 С 6 н/о н/о +23.5 +15.1 59 +26 +26 жарко 1015.2 995.8
15 13.08 С 4 н/о н/о +23.5 +13.7 54 +26 +26 жарко 1015.0 995.6
16 13.08 С 4 н/о н/о +23.0 +14.9 60 +27 +27 душно 1014.7 995.3
17 13.08 С 4 н/о н/о +22.4 +14.3 60 +26 +26 жарко 1015.0 995.5
18 13.08 С 2 20 км в посл. час дождь 9/9 600 м
[Cu Sc]
+21.5 +15.2 67 +25 +25 комфорт 1014.0 994.6 +25.2 0.0
19 13.08 С 2 20 км 9/9 1000 м
[Sc]
+21.0 +16.2 74 +25 +25 комфорт 1014.3 994.9
20 13.08 С 2 15 км 10/10 1000 м
[Sc]
+20.7 +15.5 72 +24 +24 комфорт 1014.3 994.9
21 13.08 С 3 н/о н/о +20.6 +14.1 66 +24 +24 комфорт 1014.9 995.3
06 14.08 З 1 25 км {дождь} 9/3 300 м
[Frnb Ac As]
+15.8 +14.8 94 +16 +17 1016.3 996.5 +15.3 19
07 14.08 З 2 25 км 10/3 300 м
[St Ac As]
+16.8 +15.3 91 +17 +18 1016.5 996.8
08 14.08 СЗ 3 30 км 9/1 300 м
[St Ac As]
+17.8 +14.0 78 +18 +21 1016.5 996.8
09 14.08 С 3 30 км 9/1 600 м
[Cu hum Ac As Ci fib]
+19.2 +13.8 71 +21 +26 комфорт 1016.5 996.9
10 14.08 С 2 30 км 9/3 600 м
[Cu hum Ac As Ci fib]
+20.6 +13.4 63 +24 +30 комфорт 1016.5 997.0
11 14.08 С 4 30 км 8/3 600 м
[Cu hum Ac As]
+21.2 +12.7 58 +23 +27 комфорт 1016.8 997.3
12 14.08 СВ 2 30 км 8/4 600 м
[Cu hum Ac trans]
+21.9 +13.3 58 +25 +30 комфорт 1016.4 997.0
13 14.08 С 5 30 км 8/6 600 м
[Cu hum Ac trans]
+23.2 +12.6 51 +26 +28 жарко 1015.6 996.3
14 14.08 СВ 4 н/о н/о +22.8 +13.4 55 +26 +26 жарко 1016.3 996.8
15 14.08 СВ 3 н/о н/о +22.3 +11.7 51 +25 +25 комфорт 1016.3 996.8
16 14.08 С 1 н/о н/о +22.5 +12.2 52 +25 +25 комфорт 1016.2 996.7
17 14.08 СВ 2 н/о н/о +20.9 +12.1 57 +24 +24 комфорт 1016.4 996.8
18 14.08 С 1 30 км 5/0
[Ac trans]
+19.5 +14.2 71 +22 +22 комфорт 1016.7 997.1 +23.2
19 14.08 Ю 1 30 км 5/0
[Ac trans Ci fib]
+17.0 +14.9 87 +18 +18 1017.6 997.8
20 14.08 ЮЗ 1 30 км 6/0
[Ac trans]
+16.5 +14.5 88 +17 +17 1018.0 998.2
21 14.08 З 2 н/о н/о +15.3 +13.7 90 +15 +15 1018.5 998.5
00 15.08 ЮЗ 1 н/о н/о +12.9 +12.2 96 +13 +13 1018.8 998.6
03 15.08 ЮЗ 1 н/о н/о +11.8 +11.4 97 +12 +12 1018.6 998.3
04 15.08 З 1 н/о н/о +11.0 +10.8 99 +11 +11 1018.5 998.2
05 15.08 ЮЗ 1 н/о н/о +11.7 +11.3 97 +11 +11 1018.7 998.4
06 15.08 З 1 30 км ясно +14.7 +13.2 91 +15 +18 1018.1 998.2 +10.9
07 15.08 СЗ 2 30 км ясно +17.2 +12.3 73 +18 +23 1017.9 998.1
08 15.08 СЗ 1 30 км 1/1 600 м
[Cu hum]
+19.2 +11.8 62 +21 +31 комфорт 1017.3 997.7
09 15.08 В 2 30 км 1/1 600 м
[Cu hum]
+21.2 +10.1 49 +23 +34 комфорт 1016.9 997.4
10 15.08 ЮВ 1 30 км 3/3 600 м
[Cu med, cong Ci fib]
+22.1 +9.6 45 +24 +36 комфорт 1016.4 997.0
11 15.08 В 2 30 км 4/4 600 м
[Cu hum Ci fib]
+22.9 +9.1 41 +24 +34 комфорт 1015.8 996.4
12 15.08 В 1 30 км 6/4 600 м
[Cu hum Ci fib]
+24.3 +9.5 39 +25 +35 комфорт 1015.3 996.0
13 15.08 Ю 1 30 км 8/5 600 м
[Cu hum Ci fib]
+24.3 +9.9 40 +25 +32 комфорт 1014.8 995.5
14 15.08 СВ 1 н/о н/о +24.9 +8.9 36 +25 +25 комфорт 1015.0 995.7
15 15.08 Ю 2 н/о н/о +24.6 +9.4 38 +25 +25 комфорт 1014.6 995.3
16 15.08 ЮВ 2 н/о н/о +23.3 +11.7 48 +26 +26 жарко 1014.5 995.1
17 15.08 Ю 2 н/о н/о +22.1 +13.0 56 +25 +25 комфорт 1014.6 995.1
18 15.08 ЮВ 1 30 км 3/0
[Ac trans]
+20.0 +13.1 64 +23 +23 комфорт 1014.4 994.9 +25.1
19 15.08 ЮВ 1 30 км 3/0
[Ac trans]
+16.8 +13.7 82 +18 +18 1015.1 995.4
20 15.08 Ю 1 30 км ясно +16.5 +12.8 79 +17 +17 1015.7 995.9
21 15.08 штиль 0 н/о н/о +14.6 +12.7 88 +14 +14 1016.3 996.3
00 16.08 ЮЗ 2 н/о н/о +13.2 +12.5 96 +12 +12 1016.7 996.6
03 16.08 штиль 0 н/о н/о +14.1 +13.2 94 +14 +14 1016.6 996.5
04 16.08 ЮЗ 2 н/о н/о +14.6 +13.6 94 +14 +14 1017.0 996.9
05 16.08 ЮЗ 1 н/о н/о +15.1 +14.0 93 +16 +16 1017.2 997.2
06 16.08 З 3 18 км в посл. час дождь 10/8 1000 м
[Sc Ac As]
+16.4 +14.4 88 +16 +16 1017.3 997.5 +13.0 0.0
07 16.08 З 4 7000 м дождь 10/3 1000 м
[Sc As op]
+16.3 +15.3 94 +16 +16 1017.8 998.0
08 16.08 З 2 18 км слаб. дождь 10/6 1000 м
[Sc As op]
+17.0 +15.4 90 +17 +18 1018.5 998.7
09 16.08 З 3 12 км дождь 10/3 300 м
[Frnb As op]
+17.0 +15.9 93 +17 +18 1019.0 999.2
10 16.08 З 2 20 км дождь 9/1 300 м
[Frnb Ac As]
+17.5 +16.0 91 +18 +23 1018.9 999.2
11 16.08 ЮВ 1 30 км в посл. час дождь 8/1 600 м
[Cb calv Ac As Ci fib]
+20.0 +15.9 77 +24 +34 комфорт 1018.3 998.7
12 16.08 ЮВ 1 30 км {дождь} 6/3 600 м
[Cb cap Ac trans Ci fib]
+21.9 +14.9 64 +25 +35 комфорт 1017.7 998.3 4
13 16.08 ЮЗ 2 30 км 8/4 600 м
[Cu med, cong Ac trans Ci ing]
+22.8 +14.2 58 +26 +31 жарко 1017.1 997.7
14 16.08 ЮЗ 2 н/о н/о +23.3 +13.8 55 +27 +27 душно 1017.1 997.6
15 16.08 ЮВ 1 н/о н/о +22.5 +13.9 58 +26 +26 жарко 1017.0 997.5
16 16.08 ЮЗ 2 н/о н/о +23.5 +14.0 55 +26 +26 жарко 1016.7 997.2
17 16.08 ЮЗ 2 н/о н/о +22.6 +15.0 62 +26 +26 жарко 1016.7 997.2
18 16.08 Ю 1 30 км 3/1 600 м
[Cb calv Ac trans Ci fib]
+19.8 +16.0 79 +23 +23 комфорт 1016.8 997.3 +23.7 4
19 16.08 ЮЗ 1 30 км 3/1 600 м
[Cu med, cong Ac trans Ci fib]
+17.4 +15.6 89 +18 +18 1017.6 997.9
20 16.08 ЮЗ 1 25 км 1/0
[Ac trans]
+15.9 +14.9 94 +17 +17 1018.2 998.4
21 16.08 ЮЗ 1 н/о н/о +15.0 +13.9 93 +15 +15 1018.8 998.7
00 17.08 З 1 н/о н/о +13.1 +12.9 99 +13 +13 1018.5 998.3
04 17.08 штиль 0 н/о н/о +11.3 +11.1 99 +11 +11 1018.2 997.9
05 17.08 штиль 0 н/о н/о +13.2 +12.3 94 +13 +13 1018.1 997.9
06 17.08 штиль 0 30 км 6/0
[Ci fib]
+16.9 +14.8 87 +17 +20 1017.5 997.7 +11.3
07 17.08 З 2 25 км 6/0
[Ci sp]
+18.6 +15.7 83 +20 +25 1017.8 998.2
08 17.08 Ю 1 30 км 8/0
[Cs]
+21.3 +16.7 75 +25 +34 комфорт 1017.5 998.0
09 17.08 Ю 4 35 км 9/0
[Cs]
+22.3 +15.8 67 +26 +33 жарко 1017.0 997.6
10 17.08 Ю 4 30 км 8/1 600 м
[Cu hum Ac As Ci sp]
+23.2 +15.6 62 +27 +33 душно 1016.8 997.5
11 17.08 Ю 4 30 км 6/1 600 м
[Cu hum Ac trans Ci fib]
+24.5 +15.5 57 +27 +34 жарко 1016.4 997.2
12 17.08 ЮЗ 4 30 км 3/1 600 м
[Cu hum Ac trans Ci fib]
+25.5 +14.7 51 +28 +36 жарко 1015.7 996.5
13 17.08 Ю 4 30 км 3/1 600 м
[Cu hum Ac trans Ci fib]
+26.2 +14.3 48 +29 +35 жарко 1015.3 996.2

 

Местоположение метеостанции Вараздин (Хорватия): широта 46.30 долгота 16.38 высота над уровнем моря 168 м.

В архиве по умолчанию представлена погода в Вараздине за последнюю неделю. Архивные данные за месяц целиком и за предыдущие месяцы, начиная с января 2011 года, Вы можете получить, выбрав интересующий диапазон дат из раскрывающегося списка и нажав кнопку "Ввод!".


*Определитесь, кто Вы:
робот инопланетянин человек

Внимание! Время в таблицах - всемирное. Для получения местного времени необходимо прибавить поправку, которая равна 1 ч.

Смотрите также архив погоды в соседних городах и на ближайших метеорологических станциях:

Погода в Крижевцах (Хорватия) (33 км)
Погода в Мурска-Соботе (Словения) (42 км)
Погода в Крапине (Хорватия) (43 км)
Погода в Надьканиже (Венгрия) (48 км)
Погода в Бад-Радкерсбурге (Австрия) (52 км)
Погода в Пунтиярке (Хорватия) (53 км)
Погода в Мариборе (Словения) (57 км)
Погода в Загребе (Хорватия) (60 км)
Погода в Загреб-Градеце (Хорватия) (62 км)
Погода в Загреб аэропорту (Хорватия) (68 км)

Пояснения к столбцам:

Ветер - указаны скорость ветра в м/с - средняя за 10 мин, порывы в срок и между сроками (в фигурных скобках) и направление, откуда дует ветер: С - северный, СВ - северо-восточный, В - восточный, ЮВ - юго-восточный, Ю - южный, ЮЗ - юго-западный, З - западный, СЗ - северо-западный.
Видимость - горизонтальная дальность видимости в метрах или километрах. При видимости от 1 до 10 км при отсутствии осадков обычно наблюдается дымка, при ухудшении видимости до 1 км и менее - туман. В сухую погоду видимость может ухудшаться дымом, пылью или мглою.
Явления - указаны атмосферные явления, наблюдавшиеся в срок или в последний час перед сроком; фигурными скобками обозначены явления, наблюдавшиеся между сроками (за 1-3 часа до срока); квадратными скобками обозначены град или гололедные отложения с указанием их диаметра в мм.
Облачность - указаны через наклонную черту общая и нижняя облачность в баллах и высота нижней границы облаков в метрах; квадратными скобками обозначены формы облаков: Ci - перистые, Cs - перисто-слоистые, Cc - перисто-кучевые, Ac - высококучевые, As - высокослоистые, Sc - слоисто-кучевые, Ns - слоисто-дождевые, Cu - кучевые, Cb - кучево-дождевые. Подробнее классификацию облаков см. в Атласе облаков (PDF).
T - Температура воздуха - температура, измеренная на высоте 2 м над землей.
Td - Температура точки росы - температура, при понижении до которой содержащийся в воздухе водяной пар достигнет насыщения.
f - Относительная влажность воздуха - влажноcть воздуха, измеренная на высоте 2 м над землей.
Te - Эффективная температура - температура, которую ощущает одетый по сезону человек в тени. Характеристика душности погоды. При расчете учитывается влияние влажности воздуха и скорости ветра на теплоощущения человека.
Tes - Эффективная температура на солнце - температура, которую ощущает человек, с поправкой на солнечный нагрев. Характеристика знойности погоды. Зависит от высоты солнца над горизонтом, облачности и скорости ветра. Ночью, в пасмурную погоду, а также при ветре 12 м/с и более поправка равна нулю.
P - Атмосферное давление - приведенное к уровню моря атмосферное давление.
Po - Атмосферное давление - измеренное на уровне метеостанции атмосферное давление.
Tmin - Минимальная температура - минимум температуры воздуха на высоте 2 м над землей.
Tmax - Максимальная температура - максимум температуры воздуха на высоте 2 м над землей.
R - Количество осадков - Количество выпавших осадков за период времени, мм. При наведении курсора мыши на число - период времени, за который выпало указанное количество осадков.
R24 - Количество осадков - Количество выпавших осадков за 24 часа, мм.
S - Снежный покров - Высота снежного покрова, см. При наведении курсора мыши на число - состояние снежного покрова и степень покрытия местности в баллах.